EW3225 Weather Reports


time (UTC)temp
C
wind
direction
speed
KPH
gust
KPH
rain 1hr
cm
rain 24hr
cm
rain mn
cm
humidity
%
barometer
mb
20260507143051 13 277 0.0 0.0 0.00 0.00 0.00 94 1016.4
20260507141540 12 277 0.0 0.0 0.00 0.00 0.00 94 1016.2
20260507140039 11 277 0.0 0.0 0.00 0.00 0.00 93 1016.1
20260507134539 11 277 0.0 0.0 0.00 0.00 0.00 93 1016.0
20260507133044 11 277 0.0 0.0 0.00 0.00 0.00 92 1015.8
20260507131546 11 277 0.0 0.0 0.00 0.00 0.00 92 1015.6
20260507130038 11 277 0.0 0.0 0.00 0.00 0.00 92 1015.5
20260507124537 11 277 0.0 0.0 0.00 0.00 0.00 92 1015.6
20260507123034 11 277 0.0 0.0 0.00 0.00 0.00 92 1015.5
20260507121534 11 277 0.0 0.0 0.00 0.00 0.00 91 1015.5
20260507120032 11 277 0.0 0.0 0.00 0.00 0.00 91 1015.6
20260507114529 11 277 0.0 0.0 0.00 0.00 0.00 91 1015.6
20260507113027 12 277 0.0 0.0 0.00 0.00 0.00 91 1015.7
20260507111526 12 277 0.0 0.0 0.00 0.00 0.00 91 1015.8
20260507110025 12 277 0.0 0.0 0.00 0.00 0.00 91 1015.8
20260507104523 12 277 0.0 0.0 0.00 0.00 0.00 90 1015.9
20260507103022 12 277 0.0 0.0 0.00 0.00 0.00 90 1015.9
20260507101522 12 277 0.0 0.0 0.00 0.00 0.00 90 1016.0
20260507100020 12 277 0.0 0.0 0.00 0.00 0.00 89 1016.0
20260507094520 12 277 0.0 0.0 0.00 0.00 0.00 89 1016.0
20260507093018 12 277 0.0 0.0 0.00 0.00 0.00 89 1016.2
20260507091515 12 277 0.0 0.0 0.00 0.00 0.00 89 1016.4
20260507090012 12 277 0.0 0.0 0.00 0.00 0.00 88 1016.6
20260507084532 12 277 0.0 0.0 0.00 0.00 0.00 88 1016.8
20260507083009 12 277 0.0 0.0 0.00 0.00 0.00 88 1016.8
20260507081510 13 277 0.0 0.0 0.00 0.00 0.00 87 1016.9
20260507080008 13 277 0.0 0.0 0.00 0.00 0.00 87 1017.0
20260507074508 13 277 0.0 0.0 0.00 0.00 0.00 86 1016.9
20260507073004 13 277 0.0 0.0 0.00 0.00 0.00 86 1016.9
20260507071502 13 277 0.0 0.0 0.00 0.00 0.00 85 1016.9
20260507070108 13 277 0.0 0.0 0.00 0.00 0.00 85 1017.0
20260507064600 13 277 0.0 0.0 0.00 0.00 0.00 85 1017.1
20260507063059 14 277 0.0 0.0 0.00 0.00 0.00 84 1017.2
20260507061558 14 277 0.0 0.0 0.00 0.00 0.00 83 1017.2
20260507054613 14 277 0.0 0.0 0.00 0.00 0.00 81 1017.3
20260507053107 14 277 0.0 0.0 0.00 0.00 0.00 80 1017.2
20260507051600 15 277 0.0 0.0 0.00 0.00 0.00 79 1017.1
20260507050058 15 277 0.0 0.0 0.00 0.00 0.00 79 1017.1
20260507044559 15 277 0.0 0.0 0.00 0.00 0.00 78 1017.1
20260507043055 15 277 0.0 0.0 0.00 0.00 0.00 76 1017.1
20260507041603 15 277 0.0 0.0 0.00 0.00 0.00 75 1017.0
20260507040055 16 277 0.0 0.0 0.00 0.00 0.00 74 1016.9
20260507034557 16 277 0.0 0.0 0.00 0.00 0.00 73 1016.8
20260507033055 16 277 0.0 0.0 0.00 0.00 0.00 71 1016.7
20260507031553 17 277 0.0 0.0 0.00 0.00 0.00 71 1016.6
20260507030052 17 277 0.0 0.0 0.00 0.00 0.00 70 1016.4
20260507024555 17 277 0.0 0.0 0.00 0.00 0.00 69 1016.3
20260507023052 17 277 0.0 3.2 0.00 0.00 0.00 69 1016.2
20260507021608 18 275 0.0 1.6 0.00 0.00 0.00 69 1016.0
20260507020107 18 276 0.0 8.0 0.00 0.00 0.00 68 1015.9
20260507014617 19 291 0.0 3.2 0.00 0.00 0.00 68 1015.8
20260507013052 19 291 0.0 4.8 0.00 0.00 0.00 66 1015.7
20260507011557 20 281 0.0 4.8 0.00 0.00 0.00 66 1015.6
20260507010047 -17 0.0 0.0 0.00 0.00 0.00 1015.6
20260507004541 -17 0.0 0.0 0.00 0.00 0.00 1015.5
20260507003037 -17 0.0 0.0 0.00 0.00 0.00 1015.5
20260507001552 -17 0.0 0.0 0.00 0.00 0.00 1015.4
20260507000032 -17 0.0 0.0 0.00 0.00 0.00 1015.3
20260506234523 -17 0.0 0.0 0.00 0.00 0.00 1015.3
20260506233020 -17 0.0 0.0 0.00 0.00 0.00 1015.3
20260506231519 -17 0.0 0.0 0.00 0.00 0.00 1015.3
20260506230010 -17 0.0 0.0 0.00 0.00 0.00 1015.4
20260506224506 -17 0.0 0.0 0.00 0.00 0.00 1015.6
20260506223002 -17 0.0 0.0 0.00 0.00 0.00 1015.8
20260506221604 23 271 0.0 9.7 0.00 0.00 0.00 51 1015.8
20260506220055 23 263 0.0 9.7 0.00 0.00 0.00 51 1016.0
20260506214553 23 274 1.6 19.3 0.00 0.00 0.00 51 1016.0
20260506213054 23 271 0.0 8.0 0.00 0.00 0.00 55 1016.3
20260506211552 22 264 0.0 8.0 0.00 0.00 0.00 57 1016.6
20260506210048 22 281 0.0 8.0 0.00 0.00 0.00 57 1016.6
20260506204546 22 244 0.0 11.3 0.00 0.00 0.00 57 1016.7
20260506203042 22 274 0.0 8.0 0.00 0.00 0.00 58 1016.8
20260506201541 22 308 1.6 14.5 0.00 0.00 0.00 58 1017.0
20260506200039 22 268 0.0 8.0 0.00 0.00 0.00 60 1017.1
20260506194540 22 242 0.0 9.7 0.00 0.00 0.00 61 1017.3
20260506193045 22 256 0.0 9.7 0.00 0.00 0.00 62 1017.3
20260506191534 21 159 3.2 11.3 0.00 0.00 0.00 61 1017.5
20260506190032 22 163 0.0 9.7 0.00 0.00 0.00 62 1017.6
20260506184536 21 175 4.8 17.7 0.00 0.00 0.00 61 1017.7
20260506183032 21 181 3.2 11.3 0.00 0.00 0.00 61 1017.9
20260506181540 21 183 1.6 9.7 0.00 0.00 0.00 61 1018.0
20260506180026 21 197 1.6 9.7 0.00 0.00 0.00 63 1018.1
20260506174523 20 259 0.0 6.4 0.00 0.00 0.00 64 1018.0
20260506173038 20 250 0.0 8.0 0.00 0.00 0.00 66 1018.1
20260506171521 20 189 0.0 6.4 0.00 0.00 0.00 66 1018.0
20260506170018 20 179 0.0 4.8 0.00 0.00 0.00 68 1018.2
20260506164517 18 158 0.0 9.7 0.00 0.00 0.00 66 1018.1
20260506163017 18 169 0.0 1.6 0.00 0.00 0.00 71 1018.3
20260506161510 17 169 0.0 3.2 0.00 0.00 0.00 72 1018.4
20260506160008 17 168 0.0 1.6 0.00 0.00 0.00 76 1018.4
20260506154503 16 166 0.0 8.0 0.00 0.00 0.00 80 1018.4
20260506153100 16 167 0.0 6.4 0.00 0.00 0.00 84 1018.4
20260506151558 15 205 0.0 1.6 0.00 0.00 0.00 89 1018.2
20260506150051 14 206 0.0 0.0 0.00 0.00 0.00 92 1018.3
20260506144552 13 233 0.0 0.0 0.00 0.00 0.00 93 1018.4